�������C�����ː����j�^�v���󋵏��
Date,Time,Cs137(Bq/L),Cs134(Bq/L),�S��(Bq/L)
2017/02/01,00:00,0.59,0.053,ND
2017/02/01,00:10,0.62,0.046,ND
2017/02/01,00:20,0.62,0.050,ND
2017/02/01,00:30,0.63,0.048,ND
2017/02/01,00:40,0.63,0.040,ND
2017/02/01,00:50,0.63,0.044,ND
2017/02/01,01:00,0.65,0.040,9.7
2017/02/01,01:10,0.66,0.036,ND
2017/02/01,01:20,0.67,0.038,ND
2017/02/01,01:30,0.67,0.037,ND
2017/02/01,01:40,0.64,0.044,ND
2017/02/01,01:50,0.64,0.044,ND
2017/02/01,02:00,0.61,0.048,ND
2017/02/01,02:10,0.60,0.056,ND
2017/02/01,02:20,0.57,0.052,ND
2017/02/01,02:30,0.56,0.086,ND
2017/02/01,02:40,0.59,0.074,ND
2017/02/01,02:50,0.59,0.077,ND
2017/02/01,03:00,0.58,0.052,9.0
2017/02/01,03:10,0.59,0.051,11
2017/02/01,03:20,0.58,0.061,11
2017/02/01,03:30,0.56,0.061,9.3
2017/02/01,03:40,0.54,0.067,9.7
2017/02/01,03:50,0.54,0.067,ND
2017/02/01,04:00,0.58,0.062,10
2017/02/01,04:10,0.56,0.064,9.9
2017/02/01,04:20,0.59,0.057,ND
2017/02/01,04:30,0.60,0.048,ND
2017/02/01,04:40,0.62,0.064,ND
2017/02/01,04:50,0.60,0.041,ND
2017/02/01,05:00,0.58,0.047,ND
2017/02/01,05:10,0.57,0.039,ND
2017/02/01,05:20,0.57,0.039,9.7
2017/02/01,05:30,0.56,0.060,9.0
2017/02/01,05:40,0.54,0.039,8.8
2017/02/01,05:50,0.57,0.052,8.8
2017/02/01,06:00,0.55,0.062,9.2
2017/02/01,06:10,0.57,0.061,ND
2017/02/01,06:20,0.55,0.061,ND
2017/02/01,06:30,0.57,0.048,ND
2017/02/01,06:40,0.56,0.054,ND
2017/02/01,06:50,0.55,0.060,ND
2017/02/01,07:00,0.56,0.058,ND
2017/02/01,07:10,0.55,0.058,ND
2017/02/01,07:20,0.56,0.059,9.0
2017/02/01,07:30,0.54,0.069,9.9
2017/02/01,07:40,0.57,0.062,9.0
2017/02/01,07:50,0.54,0.044,9.5
2017/02/01,08:00,0.56,0.057,ND
2017/02/01,08:10,0.56,0.062,8.9
2017/02/01,08:20,0.53,0.044,9.0
2017/02/01,08:30,0.56,0.038,ND
2017/02/01,08:40,0.54,0.041,ND
2017/02/01,08:50,0.57,0.043,9.3
2017/02/01,09:00,0.59,0.052,9.7
2017/02/01,09:10,0.58,0.032,10
2017/02/01,09:20,0.59,0.033,9.2
2017/02/01,09:30,0.59,0.035,8.8
2017/02/01,09:40,0.62,0.058,9.5
2017/02/01,09:50,0.58,0.039,9.0
2017/02/01,10:00,0.58,0.051,ND
2017/02/01,10:10,0.59,0.074,ND
2017/02/01,10:20,0.55,0.074,ND
2017/02/01,10:30,0.57,0.061,11
2017/02/01,10:40,0.59,0.057,10
2017/02/01,10:50,0.62,0.052,8.9
2017/02/01,11:00,0.62,0.048,10
2017/02/01,11:10,0.62,0.046,ND
2017/02/01,11:20,0.62,0.042,11
2017/02/01,11:30,0.62,0.050,10
2017/02/01,11:40,0.64,0.053,8.8
2017/02/01,11:50,0.64,0.048,12
2017/02/01,12:00,0.65,0.044,13
2017/02/01,12:10,0.71,0.051,13
2017/02/01,12:20,0.72,ND,11
2017/02/01,12:30,0.68,0.029,13
2017/02/01,12:40,0.65,0.025,15
2017/02/01,12:50,0.69,ND,11
2017/02/01,13:00,0.69,ND,12
2017/02/01,13:10,0.70,ND,13
2017/02/01,13:20,0.67,0.060,12
2017/02/01,13:30,0.65,0.039,11
2017/02/01,13:40,0.69,0.061,12
2017/02/01,13:50,0.69,0.061,14
2017/02/01,14:00,0.68,0.069,15
2017/02/01,14:10,0.67,0.074,12
2017/02/01,14:20,0.63,0.058,12
2017/02/01,14:30,0.63,0.054,11
2017/02/01,14:40,0.61,0.058,12
2017/02/01,14:50,0.60,0.058,13
2017/02/01,15:00,0.61,0.051,11
2017/02/01,15:10,0.62,0.045,15
2017/02/01,15:20,0.63,0.045,18
2017/02/01,15:30,0.65,0.043,17
2017/02/01,15:40,0.66,0.046,15
2017/02/01,15:50,0.65,0.057,15
2017/02/01,16:00,0.63,0.057,16
2017/02/01,16:10,0.60,0.066,14
2017/02/01,16:20,0.60,0.078,13
2017/02/01,16:30,0.60,0.072,10
2017/02/01,16:40,0.60,0.058,11
2017/02/01,16:50,0.60,0.049,9.9
2017/02/01,17:00,0.56,0.043,12
2017/02/01,17:10,0.55,0.040,12
2017/02/01,17:20,0.56,0.050,12
2017/02/01,17:30,0.55,0.055,15
2017/02/01,17:40,0.57,0.054,14
2017/02/01,17:50,0.57,0.059,14
2017/02/01,18:00,0.59,0.041,12
2017/02/01,18:10,0.63,0.045,13
2017/02/01,18:20,0.64,0.042,14
2017/02/01,18:30,0.58,0.038,13
2017/02/01,18:40,0.60,0.035,13
2017/02/01,18:50,0.60,0.050,14
2017/02/01,19:00,0.57,0.044,13
2017/02/01,19:10,0.59,0.039,10
2017/02/01,19:20,0.59,0.040,10
2017/02/01,19:30,0.62,0.037,11
2017/02/01,19:40,0.59,0.042,9.0
2017/02/01,19:50,0.61,0.062,ND
2017/02/01,20:00,0.59,0.069,ND
2017/02/01,20:10,0.57,0.074,ND
2017/02/01,20:20,0.56,0.074,ND
2017/02/01,20:30,0.56,0.073,ND
2017/02/01,20:40,0.54,0.074,9.7
2017/02/01,20:50,0.54,0.058,8.8
2017/02/01,21:00,0.58,0.049,ND
2017/02/01,21:10,0.59,0.050,9.3
2017/02/01,21:20,0.58,0.053,12
2017/02/01,21:30,0.58,0.050,12
2017/02/01,21:40,0.62,0.046,11
2017/02/01,21:50,0.63,0.061,13
2017/02/01,22:00,0.62,0.057,12
2017/02/01,22:10,0.61,0.063,11
2017/02/01,22:20,0.63,0.063,ND
2017/02/01,22:30,0.61,0.064,ND
2017/02/01,22:40,0.59,0.068,ND
2017/02/01,22:50,0.61,0.069,ND
2017/02/01,23:00,0.60,0.065,ND
2017/02/01,23:10,0.63,0.080,ND
2017/02/01,23:20,0.66,0.079,ND
2017/02/01,23:30,0.68,0.069,10
2017/02/01,23:40,0.70,0.072,10
2017/02/01,23:50,0.71,0.068,13
